{"data":{"norad_id":89184,"intl_designator":"","name":"UNKNOWN","alt_names":[],"object_type":"UNKNOWN","status":"UNKNOWN","operator":null,"country":null,"launch_date":null,"launch_site_code":null,"launch_vehicle":null,"mission":null,"orbit_class":"UNKNOWN","rcs_meters":null,"size_class":null,"mass_kg":null,"dimensions":null,"purposes":[],"wikipedia_slug":null,"has_3d_model":false,"image_url":null,"decayed_at":null,"tle_current":{"epoch":"2026-09-18T12:05:58.481376Z","epoch_age_seconds":186937,"freshness":"STALE","line1":"1 89184U          26261.50414909  .00018922  00000+0  17307-2 0  9990","line2":"2 89184  98.3656 147.2856 0006733 326.0206  34.0580 14.95023677533791","mean_motion":14.95023677,"eccentricity":0.0006733,"inclination_deg":98.3656,"raan_deg":147.2856,"arg_perigee_deg":326.0206,"mean_anomaly_deg":34.058,"bstar":0.0017307,"rev_number":53379,"period_min":96.31954477735,"perigee_km":577.6127991251,"apogee_km":586.98572259398,"semimajor_km":6960.4362608595,"source":"CELESTRAK","updated_at":"2026-09-20T09:00:32.483619Z"}}}